Theta_e
335 330 329 335 340 339 340 339 339 339 339 338 338 335 327 326 323 316 313 311 314 317 323 328 328 323 315 313 312 310 311 311 312 314 312 312 313 312 310 313 318 321 321 320 320 321 321 320 319 317 317 318 322 322 320 322 323 321 318 318 319 319 320 321 322 323 325 326 326 325 324 325 325 324 324 323 323 323 322 323 324 327 328 329 329
333 330 329 333 339 339 339 339 339 339 339 339 337 334 330 330 326 319 314 311 311 313 323 330 330 325 320 317 315 313 313 313 311 314 315 315 314 311 311 315 317 318 320 319 319 320 320 318 317 316 315 316 317 318 322 324 324 323 323 323 322 320 318 317 318 320 323 325 325 324 323 324 324 324 324 323 323 323 322 323 323 326 327 328 328
332 330 328 332 338 339 339 339 340 339 339 339 336 334 333 332 328 320 313 310 310 314 324 330 327 321 319 317 318 321 321 320 315 318 322 319 315 311 311 316 317 317 317 317 316 318 317 315 314 314 312 311 314 319 323 323 323 324 324 323 322 320 318 317 318 319 321 322 324 324 323 323 322 323 324 323 323 323 324 325 324 326 327 327 327
332 329 327 329 336 339 339 339 340 339 339 339 337 335 334 333 329 320 313 311 310 318 327 328 324 317 316 315 319 326 325 324 322 324 326 321 316 312 311 314 316 315 314 314 313 313 313 311 311 311 311 310 313 318 320 320 321 322 321 321 320 319 318 318 319 319 320 321 323 323 323 323 321 322 323 322 322 324 326 327 327 327 327 326 326
332 328 327 327 333 339 339 339 339 339 340 339 337 335 334 333 328 320 315 312 309 317 323 320 317 314 314 313 318 325 324 323 325 326 326 323 317 312 311 312 312 311 310 311 311 311 311 310 310 310 310 310 311 314 316 318 319 319 320 320 321 321 320 319 318 318 320 321 321 322 323 323 323 322 321 321 322 324 326 326 327 327 326 326 325
332 328 328 326 329 337 339 339 339 339 340 339 338 335 335 332 326 321 316 311 310 315 317 316 316 315 314 312 319 324 323 323 325 327 325 323 317 312 311 310 311 312 311 311 311 311 310 310 310 310 310 310 310 312 314 316 317 319 320 321 321 321 321 320 319 318 319 320 320 321 323 323 324 324 321 320 323 326 326 326 326 326 326 325 324
333 329 328 326 326 334 338 339 339 339 340 339 338 336 334 330 324 320 315 309 312 315 315 317 316 315 316 314 319 322 322 322 324 325 324 323 320 315 312 310 312 313 312 310 310 310 310 311 310 310 310 310 310 311 313 315 317 319 320 321 321 322 322 322 321 319 319 319 319 320 321 323 325 326 324 320 322 325 326 327 327 327 326 324 323
334 331 328 327 324 330 337 339 340 339 339 339 337 336 333 328 322 318 313 309 311 313 313 317 315 314 316 316 318 320 322 322 324 323 319 321 321 317 314 312 311 311 312 311 310 310 310 311 310 310 310 310 310 311 313 314 316 318 319 319 319 321 323 324 323 321 320 319 320 320 321 321 323 326 326 322 322 325 326 326 326 326 325 324 321
335 331 328 328 323 327 335 338 339 340 339 338 337 335 332 327 321 315 311 309 310 312 311 314 315 314 314 316 319 320 322 320 322 321 315 317 319 316 316 316 313 310 311 311 310 310 310 310 310 310 310 310 310 310 312 313 315 316 317 318 318 319 321 324 324 323 320 320 320 320 321 320 320 322 324 323 322 323 325 324 323 323 324 323 320
336 332 329 328 324 324 332 337 338 339 338 337 336 333 331 325 319 314 309 309 309 311 312 313 316 315 313 315 319 318 318 317 318 319 315 315 316 315 316 317 317 313 311 310 310 310 310 310 310 310 310 310 310 310 311 312 313 314 315 316 316 317 320 323 324 323 321 320 319 318 320 321 320 321 321 320 320 320 321 322 321 322 323 322 320
336 333 330 329 326 323 326 333 337 339 338 337 336 333 328 320 316 312 308 310 310 313 313 315 318 316 314 315 317 317 315 315 315 317 315 314 314 315 317 317 316 316 313 310 310 311 310 310 310 310 310 310 310 310 310 310 311 312 313 314 314 314 317 320 322 322 321 321 320 318 319 321 322 322 321 320 321 321 321 322 322 322 322 320 319
335 333 331 330 328 324 322 324 329 334 335 335 333 327 320 314 313 310 309 310 310 317 319 319 322 317 315 314 315 316 314 313 314 314 314 312 313 314 315 317 317 316 314 310 310 311 310 310 310 310 310 310 310 310 310 310 310 311 311 312 313 313 314 317 319 320 321 322 321 319 319 321 323 324 323 323 322 323 323 324 324 322 321 319 318
335 333 332 331 329 327 324 321 322 323 325 325 322 317 314 311 311 308 312 315 313 318 322 322 320 315 314 314 314 314 313 314 313 313 312 311 312 311 313 319 319 317 314 311 311 310 310 310 310 310 310 310 310 310 310 310 310 310 310 310 311 312 313 314 316 318 319 320 319 317 319 321 324 325 325 325 325 324 324 325 325 322 321 319 317
334 334 333 332 331 329 327 324 322 320 319 318 315 313 312 310 310 308 312 319 319 319 322 323 320 316 314 314 314 314 312 313 314 313 312 312 312 312 314 317 315 314 314 312 310 310 310 310 310 310 310 310 310 310 310 310 310 310 310 310 311 311 312 313 314 315 316 317 317 316 319 321 323 325 325 326 325 325 324 325 325 322 320 319 317
332 333 334 333 332 330 329 326 323 322 319 317 315 312 310 310 310 309 310 317 322 319 318 320 319 317 315 314 314 314 313 313 313 313 312 313 314 312 314 315 312 312 312 311 311 310 310 310 310 310 310 310 310 310 310 310 310 310 310 310 310 311 312 312 312 313 313 314 316 316 318 321 323 324 324 326 325 326 325 324 324 322 320 319 316
331 332 333 333 332 331 330 327 325 323 319 317 314 311 310 310 309 310 309 313 319 320 318 318 318 317 316 315 314 314 313 313 313 313 313 313 314 313 314 314 313 313 311 311 312 311 310 310 310 310 310 310 310 310 310 310 310 310 310 310 310 311 311 312 311 311 312 313 315 316 317 320 322 323 323 325 325 326 326 325 324 322 321 319 316
330 331 332 332 332 331 329 328 326 323 320 316 314 311 310 310 309 310 310 310 314 318 321 320 318 317 316 316 315 315 314 313 313 313 313 313 314 313 314 315 314 313 312 311 311 311 310 310 310 310 310 310 310 310 310 310 310 310 310 310 310 311 311 311 311 310 311 312 314 315 316 318 320 322 322 323 325 325 326 326 325 323 322 320 317
325 327 330 330 330 329 327 327 326 323 319 316 314 312 310 310 309 309 310 310 312 314 317 317 317 319 319 318 317 316 316 314 313 313 313 312 313 312 313 313 313 313 311 311 311 311 311 310 310 310 310 310 310 310 310 310 310 310 310 310 311 311 311 311 311 310 310 310 313 315 316 316 318 320 321 322 324 325 326 325 325 324 322 320 318
326 323 325 326 325 325 325 324 323 322 319 316 314 312 310 309 309 310 309 309 310 312 312 312 315 319 320 320 319 318 316 316 314 314 313 313 313 312 312 312 312 311 311 311 311 310 310 310 310 310 310 310 310 310 310 310 310 310 310 311 311 311 311 311 312 311 310 310 312 314 316 316 316 319 322 322 323 325 326 324 325 325 323 321 319
330 324 321 322 321 320 320 321 321 320 318 316 315 312 310 309 309 309 309 309 309 310 311 311 314 316 318 319 320 319 317 316 316 315 314 315 314 312 312 312 311 311 311 311 310 311 310 310 310 310 310 310 310 310 310 310 310 311 311 311 311 311 311 311 312 311 310 309 311 314 316 317 315 317 320 322 322 323 324 324 325 324 323 323 320
331 326 321 321 321 319 318 318 318 319 318 317 315 313 310 309 310 309 309 309 309 309 310 311 313 315 316 316 318 319 316 316 316 316 316 315 315 314 312 312 311 311 311 311 311 311 310 310 310 310 310 310 310 310 310 310 310 311 311 311 311 311 311 311 312 311 310 309 310 313 316 317 318 318 318 321 322 320 322 323 324 324 324 323 320
329 327 323 322 322 321 320 319 319 317 317 316 315 314 311 309 309 309 309 309 309 309 309 310 312 313 315 314 314 315 315 316 316 317 317 316 316 315 313 312 312 311 311 311 311 310 310 310 310 310 310 310 310 310 310 310 311 311 311 311 311 312 311 311 311 311 310 309 310 312 314 317 320 322 320 321 321 319 322 324 324 324 323 322 321
328 326 324 324 323 323 323 322 322 320 317 316 315 314 313 310 309 309 309 309 309 309 309 309 310 311 312 312 312 313 314 315 316 317 317 317 317 316 314 313 312 312 311 311 311 311 310 310 310 310 310 310 310 310 310 310 310 311 311 311 311 312 312 311 311 311 311 309 309 311 313 315 319 321 321 323 322 319 322 324 324 324 322 321 321
326 325 325 324 323 323 324 324 324 323 321 319 316 314 313 311 310 310 309 309 309 309 309 308 309 309 310 310 311 311 312 313 314 315 316 316 316 316 315 313 312 311 311 311 311 311 311 310 310 310 310 310 310 310 310 310 310 310 310 311 311 312 311 311 311 311 311 310 310 310 312 314 317 319 321 324 324 321 321 323 324 324 322 322 320
325 325 324 322 321 320 321 322 323 324 324 322 319 315 313 312 311 310 310 309 309 309 309 308 309 308 309 309 309 310 310 311 312 312 313 313 314 314 314 313 311 311 311 311 311 311 311 311 310 310 310 310 310 310 310 310 310 310 310 311 311 311 311 311 311 311 311 311 310 310 311 312 314 317 320 323 325 323 322 321 322 323 323 322 320
326 325 322 320 319 318 318 319 321 323 324 325 323 319 315 313 313 311 310 310 310 309 309 309 309 309 309 309 309 309 309 310 310 310 310 310 311 311 312 311 311 311 311 311 311 311 310 311 310 310 310 310 310 310 310 310 310 310 310 310 311 311 311 310 311 311 311 312 311 310 310 311 313 315 318 321 323 324 323 322 322 322 322 322 321
324 323 322 320 319 317 317 318 319 320 323 325 325 323 319 316 314 313 311 310 310 310 309 309 309 309 309 308 309 308 308 309 308 309 309 309 310 310 310 310 311 311 311 311 311 311 311 310 310 310 310 310 310 310 310 310 310 310 310 310 310 310 310 310 311 310 311 311 311 311 310 310 312 313 316 320 322 323 324 324 323 322 322 321 320
321 320 320 319 318 316 316 317 318 319 321 324 325 325 324 320 317 315 313 311 310 310 310 309 309 309 309 308 309 308 308 308 308 308 309 309 309 309 309 309 310 310 310 310 310 310 310 310 310 310 310 310 310 310 310 309 310 310 310 310 310 310 310 310 311 310 310 311 311 311 311 310 310 312 314 317 321 322 323 324 323 323 322 321 320
318 316 316 316 315 315 315 315 316 317 319 321 323 324 325 324 321 318 315 313 311 310 310 309 309 309 309 309 309 309 308 308 308 308 308 309 309 310 310 309 309 309 309 309 309 309 309 310 310 310 310 310 310 310 310 310 310 310 310 310 310 310 310 310 310 310 311 311 311 311 311 311 310 311 312 315 318 320 323 324 324 324 323 322 321
316 315 316 315 314 314 314 314 314 315 316 318 319 321 324 324 323 321 318 315 313 311 310 310 309 309 309 309 309 309 309 309 309 309 309 308 309 309 309 309 309 309 309 309 309 309 309 309 309 309 310 310 310 310 310 310 309 310 309 310 310 310 309 309 310 310 310 311 311 311 311 311 311 310 311 313 315 318 321 323 323 323 324 323 322
317 317 316 316 315 315 314 314 314 314 314 315 316 317 320 322 324 323 321 319 316 314 312 311 310 309 309 309 309 309 309 309 309 309 309 309 309 309 309 309 309 309 309 309 309 309 309 309 309 309 309 309 309 309 309 309 309 309 309 309 309 309 309 309 309 310 310 310 310 311 311 311 311 311 311 311 313 315 318 321 322 322 323 324 323
318 318 318 317 316 316 315 315 314 314 314 313 313 314 316 318 321 323 323 322 320 318 316 313 311 310 310 310 310 309 309 309 309 309 309 309 309 309 309 309 309 309 308 308 309 309 308 308 308 308 309 309 309 309 309 309 309 309 309 309 309 309 309 308 309 309 309 310 310 311 311 311 311 311 311 311 311 313 315 317 319 320 321 323 324
320 319 319 318 318 317 317 317 316 315 315 314 314 313 313 314 317 319 322 323 323 322 320 318 316 313 311 311 311 311 311 311 310 310 309 309 309 309 309 309 309 309 308 308 308 308 308 308 308 308 308 308 308 309 309 309 309 309 309 308 309 308 308 308 308 309 309 309 310 311 311 311 311 311 312 312 311 311 312 314 317 318 318 320 323
321 320 320 320 319 319 318 318 318 317 317 317 316 316 315 314 314 314 317 320 322 323 323 322 321 318 316 313 312 312 312 312 311 311 311 310 310 309 309 309 309 309 309 309 308 308 308 308 308 308 308 308 308 308 308 309 309 308 309 308 308 308 308 308 308 308 308 309 310 311 312 312 311 311 311 312 312 311 311 312 314 316 316 317 321
324 322 322 322 320 319 319 319 319 319 319 319 319 319 318 317 316 314 313 315 317 320 322 324 324 323 321 318 316 314 312 312 311 311 312 311 311 310 310 310 309 309 309 309 309 308 308 308 308 308 308 308 308 308 308 308 309 308 308 308 308 308 308 308 308 308 308 308 309 310 312 312 312 312 312 312 312 312 312 312 312 313 315 316 318
326 326 326 325 322 321 320 319 319 319 319 320 321 321 321 320 319 318 316 315 314 315 317 320 323 324 324 323 321 319 316 314 313 313 313 313 312 312 312 311 310 310 309 309 309 308 308 308 308 308 308 308 308 308 308 308 308 308 308 308 308 308 308 308 307 307 307 307 308 309 311 312 312 312 313 313 312 312 312 312 312 312 313 313 315
326 327 327 327 326 324 322 321 320 319 319 319 320 320 321 321 321 321 320 318 317 315 314 316 318 321 324 325 324 323 321 319 317 316 316 315 315 315 315 314 313 311 310 310 309 309 308 308 308 308 307 307 308 308 308 308 308 308 307 307 308 308 308 308 307 307 307 307 308 309 310 311 311 312 313 313 313 313 313 313 313 313 313 312 313
325 326 326 327 328 327 326 325 323 321 320 319 319 319 319 320 321 321 321 321 320 319 317 316 315 317 320 323 325 326 325 323 322 320 319 319 319 319 319 318 316 314 313 312 311 311 310 309 309 308 308 307 307 308 308 307 307 307 307 307 307 307 307 308 308 308 308 307 307 308 309 310 311 312 312 313 313 314 314 313 313 313 313 313 312
326 326 326 327 327 327 327 327 326 323 322 320 320 319 319 320 320 321 321 321 321 321 320 319 317 316 317 318 321 323 325 326 325 324 322 322 321 321 321 320 319 318 316 315 314 314 314 313 312 311 310 308 308 308 308 307 307 307 307 307 307 307 307 308 308 308 308 308 307 308 309 310 312 313 313 313 313 314 314 314 314 314 314 314 313
326 327 327 327 327 327 327 327 327 326 324 323 321 321 320 320 320 320 321 321 321 321 322 321 320 319 318 318 318 319 321 323 324 325 325 324 323 323 322 321 321 320 319 318 318 318 317 317 316 315 313 311 310 308 308 307 307 307 307 307 307 307 307 307 308 308 308 308 308 308 309 311 313 314 313 313 313 314 314 315 315 314 315 315 314
326 326 326 326 326 326 327 327 327 326 325 324 323 322 321 321 321 321 321 322 322 322 322 323 323 322 321 320 319 319 319 319 320 322 323 324 325 324 324 323 322 321 320 320 320 320 319 319 319 318 317 316 314 313 310 308 307 307 307 307 308 308 308 308 308 308 308 309 310 310 311 312 314 315 314 314 314 314 314 315 315 315 315 315 315
326 326 326 326 326 325 326 326 327 326 326 325 324 323 323 322 322 322 322 322 322 324 324 324 324 324 323 322 322 321 320 320 319 320 320 321 322 323 323 323 323 322 322 321 320 320 320 320 320 320 320 319 319 318 314 310 309 309 308 308 308 308 309 309 310 310 310 312 312 312 313 314 315 316 315 315 315 314 314 315 315 315 315 315 316
326 326 326 326 326 325 325 325 326 326 326 325 324 324 324 323 323 322 322 321 322 324 325 325 324 324 324 324 324 324 323 322 321 321 320 320 320 320 321 321 322 322 322 322 321 321 320 320 320 320 320 320 320 319 317 315 313 311 311 311 310 310 312 312 312 314 314 315 315 315 316 316 316 316 316 316 315 314 314 315 316 316 316 316 316
326 326 326 326 325 325 325 325 324 325 325 325 325 324 324 325 324 324 323 322 322 324 324 325 325 324 325 325 325 325 324 324 324 323 322 321 321 320 320 320 321 320 321 321 321 321 320 321 321 320 320 320 320 320 320 318 316 314 313 313 312 313 314 314 315 316 316 316 316 316 317 317 317 317 316 316 315 314 314 315 315 316 316 316 316
326 325 325 325 325 324 324 325 324 324 325 325 325 324 325 325 325 325 325 324 323 323 324 324 324 324 324 325 325 325 325 324 324 324 324 323 322 322 321 321 320 320 320 320 319 319 319 320 320 320 320 320 321 321 320 320 319 317 315 314 314 315 315 315 316 317 317 317 317 317 317 317 317 317 317 316 316 315 315 315 315 315 315 316 317
325 324 324 324 323 323 323 324 324 324 324 324 325 324 324 325 325 325 325 325 324 324 325 325 324 324 324 324 324 324 325 325 325 324 324 324 324 323 323 322 321 321 320 320 320 319 319 319 319 319 320 320 320 321 320 320 320 319 318 316 315 315 315 315 316 316 316 317 316 316 316 316 316 316 316 316 316 316 315 315 315 315 315 315 316
323 323 323 323 322 322 323 324 324 324 324 324 325 325 324 324 325 325 325 325 325 325 325 324 324 324 324 324 323 324 324 325 325 325 325 324 324 324 324 324 323 322 321 321 321 321 320 320 320 320 319 320 321 321 320 321 321 320 320 319 318 317 315 314 314 314 315 315 316 316 315 314 314 315 315 315 316 316 316 316 316 315 315 315 315
323 322 322 322 321 322 322 323 324 324 324 325 325 325 325 325 324 325 325 325 325 324 324 324 324 324 324 324 324 324 324 324 325 325 325 325 325 324 324 324 324 324 323 322 322 321 321 321 321 321 320 321 321 321 321 321 322 321 321 321 320 319 318 316 315 315 314 315 316 317 317 315 314 315 315 314 315 315 315 316 316 316 316 316 316
322 321 321 321 321 321 322 324 324 325 325 325 325 325 325 325 325 325 325 325 325 325 324 324 324 324 324 323 323 324 324 324 325 325 326 325 325 324 324 323 324 325 324 324 323 322 322 322 322 322 322 321 321 321 322 322 322 322 322 322 321 320 320 319 318 317 316 316 316 317 318 317 315 316 316 315 315 315 315 316 316 316 317 317 317
321 320 321 321 320 321 322 323 324 324 325 325 325 325 325 326 325 325 325 325 325 325 325 324 324 324 324 323 323 323 323 323 324 324 325 325 325 324 324 323 324 325 325 324 324 323 323 323 323 323 323 322 322 322 322 321 322 322 322 322 322 322 321 321 320 320 318 318 317 317 318 318 317 317 317 316 316 315 316 316 316 317 317 317 317
320 320 320 320 321 321 321 322 322 323 324 324 324 325 325 325 325 325 325 325 324 324 324 324 323 323 323 322 322 321 321 321 321 322 323 324 324 324 324 324 324 325 325 325 324 324 324 324 324 324 324 324 323 323 322 322 322 322 322 322 322 322 322 322 322 322 321 320 319 318 319 319 318 318 318 318 317 317 316 316 316 316 317 317 317
Wind_Speed
14 12 12 12 13 13 13 12 12 12 10 9 7 6 5 3 4 6 7 7 7 9 10 10 9 7 7 7 7 6 4 4 4 3 4 4 7 10 10 10 11 12 13 14 13 13 13 13 13 13 13 13 13 14 14 14 15 14 14 14 15 16 16 16 14 15 15 14 13 13 13 13 13 13 14 16 17 17 17 17 16 16 16 16 15
16 14 12 12 14 14 13 12 11 11 10 8 8 7 5 3 4 5 6 7 7 9 11 10 9 7 7 7 6 6 5 5 5 6 6 7 9 11 10 10 11 12 13 13 13 13 13 13 13 13 13 13 14 15 14 14 14 14 14 13 13 14 17 17 15 15 15 14 14 14 13 12 12 12 13 14 15 16 16 16 15 15 15 14 14
15 14 13 12 14 14 13 12 12 11 10 9 8 7 5 3 3 4 6 7 7 9 11 9 8 6 7 8 8 8 8 8 8 9 9 9 10 11 10 10 11 12 13 13 13 13 13 13 13 13 13 13 13 14 14 14 14 13 13 13 13 13 15 17 16 15 14 14 14 14 13 12 12 12 13 13 14 15 16 16 14 14 14 12 12
14 14 14 12 13 14 14 13 12 11 10 9 8 7 5 3 2 4 5 7 7 9 10 9 7 7 8 9 9 10 10 10 10 10 10 9 11 12 10 10 12 12 12 12 13 13 13 13 13 13 13 12 13 14 14 14 13 13 13 13 14 14 13 15 16 15 14 14 14 13 13 12 12 12 12 13 14 14 15 15 14 13 12 11 11
13 13 13 12 13 13 14 13 12 11 10 9 8 7 5 3 2 3 4 6 6 8 9 8 7 7 9 10 9 9 10 10 10 10 10 9 11 12 11 11 12 12 12 12 13 13 13 13 14 13 12 12 12 13 14 14 13 13 13 13 13 12 11 12 14 15 14 13 13 13 13 13 12 11 11 12 13 14 14 14 13 12 10 10 10
13 13 12 12 13 13 14 13 12 11 10 10 8 6 5 4 2 2 3 4 5 7 8 8 7 8 9 10 9 9 9 10 10 10 10 9 11 12 12 12 12 12 12 12 12 12 12 13 13 13 12 11 11 12 13 13 13 13 12 12 11 10 9 10 11 13 12 12 12 12 12 12 12 11 10 11 11 12 13 12 11 10 8 8 8
12 12 12 12 12 13 14 14 13 12 11 10 8 6 5 3 2 1 3 4 4 5 7 7 8 8 9 10 9 9 9 9 10 10 9 9 11 12 12 12 11 12 12 12 12 12 12 12 13 12 11 10 10 10 11 12 12 12 11 10 10 9 8 7 8 10 10 10 11 12 11 11 11 10 10 10 11 11 11 10 10 8 7 7 6
12 13 12 12 12 13 14 14 13 12 11 10 8 7 4 2 0 2 2 3 4 4 5 6 8 9 9 9 9 9 9 9 9 9 9 10 10 11 12 12 12 12 11 12 11 11 11 11 12 12 10 9 9 9 10 10 11 11 10 9 9 9 8 6 5 7 9 10 10 10 10 10 10 10 10 10 10 10 10 9 8 6 5 5 5
13 14 13 12 12 14 14 13 13 12 12 11 9 7 4 1 1 1 2 3 3 3 4 5 7 9 8 8 8 8 8 8 8 9 10 10 10 11 12 11 12 12 11 11 11 10 11 11 11 10 9 8 8 8 9 9 9 9 9 8 8 8 8 7 5 4 7 8 8 8 8 10 10 9 9 9 8 8 8 7 5 4 3 4 4
14 15 14 13 12 14 14 14 13 13 13 11 10 7 4 3 2 1 1 1 2 2 4 4 6 8 8 8 8 8 7 7 7 8 9 10 10 10 10 10 11 11 11 10 10 10 10 10 10 9 8 8 7 7 7 7 7 7 7 7 6 6 7 7 6 4 4 6 7 7 7 9 9 9 8 7 6 5 5 4 3 3 3 3 4
15 16 15 14 13 13 15 15 14 14 14 12 10 8 6 5 4 3 2 2 1 2 4 4 6 8 8 8 8 8 7 6 6 7 9 9 9 9 9 10 10 10 10 10 9 9 9 9 9 8 7 7 6 6 6 5 5 5 4 4 4 5 6 6 5 5 4 4 5 5 6 8 8 8 8 6 5 4 4 3 3 3 3 3 4
15 16 16 14 14 13 14 15 15 15 14 13 12 10 8 7 5 4 4 4 3 4 5 6 7 7 8 9 8 8 7 6 6 7 8 8 8 8 8 9 10 9 10 9 9 9 8 8 8 7 7 6 5 5 5 4 4 3 2 2 2 3 4 5 5 4 4 4 4 5 7 8 8 7 7 6 5 3 3 4 4 3 2 2 3
16 16 16 15 15 14 14 14 14 15 14 14 13 11 9 8 6 5 5 5 4 6 6 7 8 7 8 9 8 7 6 7 6 7 8 8 8 8 8 8 8 8 8 9 8 8 8 8 7 7 6 5 5 4 4 4 3 2 1 1 1 2 2 4 4 5 4 4 5 7 8 8 7 6 6 6 5 3 2 3 3 1 2 2 3
17 16 15 15 15 15 14 14 14 14 14 13 12 11 10 8 7 6 6 7 6 7 7 7 7 8 8 8 8 8 7 6 6 7 7 8 8 8 8 7 7 7 7 7 8 8 8 7 6 6 5 4 4 4 3 3 2 1 1 0 1 2 2 3 4 5 5 5 6 8 9 8 7 6 6 6 5 4 2 3 3 2 3 2 3
16 15 15 14 14 14 15 14 14 13 13 12 10 10 10 9 8 8 7 8 8 7 8 7 7 8 9 8 8 8 8 8 7 8 7 7 8 9 9 8 8 7 7 7 7 8 7 7 6 5 4 3 3 2 2 2 2 1 1 1 1 1 2 3 4 4 4 4 6 7 9 9 7 7 6 6 6 5 3 4 4 3 3 3 3
15 14 14 14 14 14 15 15 14 13 12 11 10 10 10 10 10 10 9 9 10 9 8 8 7 9 10 9 9 9 9 9 8 8 8 8 8 9 9 9 8 8 8 7 7 7 6 6 5 4 4 3 2 1 1 1 1 1 1 1 1 1 2 3 4 3 4 4 6 7 9 9 8 7 7 6 6 6 5 6 6 5 4 3 3
14 13 13 14 15 15 15 15 14 13 12 11 11 11 11 11 11 11 11 11 11 10 10 9 8 9 10 11 10 10 10 10 9 9 9 9 9 9 9 8 9 8 8 7 6 5 5 5 4 4 3 3 2 1 0 0 1 2 2 2 2 2 2 3 4 2 3 5 5 6 8 9 8 8 7 6 6 6 6 7 7 6 5 5 5
11 13 13 14 15 16 16 15 14 13 12 12 12 12 12 12 12 12 13 13 12 12 13 12 11 10 10 11 12 11 11 11 10 10 10 10 10 9 9 8 8 7 6 6 5 5 5 4 4 4 3 3 2 2 1 1 1 2 2 2 2 3 3 3 3 2 3 4 5 6 7 9 10 9 8 7 7 7 7 7 8 7 6 5 6
9 11 13 13 14 15 16 15 14 14 13 13 12 13 13 13 13 13 13 13 13 13 14 14 13 12 11 12 12 13 12 12 11 11 11 11 11 11 10 9 9 7 6 6 5 5 5 5 4 4 4 3 3 3 3 3 2 3 3 3 3 3 4 4 3 2 3 4 5 6 6 8 10 10 8 8 8 8 8 8 9 10 8 6 7
10 11 12 12 12 13 14 14 14 14 14 13 13 14 14 14 14 14 14 14 14 14 14 15 15 14 13 13 13 14 13 13 13 13 13 13 13 13 12 11 10 9 8 8 7 7 7 6 6 5 5 4 4 4 4 4 3 3 3 3 3 3 4 4 3 2 2 3 5 7 6 7 9 10 9 8 9 9 9 9 10 11 10 8 7
13 12 12 11 11 11 12 13 13 14 14 14 14 15 15 15 15 15 15 15 15 14 15 16 16 16 15 15 14 15 14 14 14 14 14 14 14 14 14 13 12 11 10 9 8 8 8 8 7 7 6 6 5 5 5 5 4 4 4 3 3 4 4 4 3 3 3 3 5 7 7 8 8 8 9 9 10 10 10 10 11 13 11 9 8
14 13 13 12 12 11 11 11 12 12 13 15 15 15 16 17 17 16 16 16 15 15 15 16 17 17 17 16 16 16 16 16 16 15 15 15 15 15 15 15 14 13 12 11 10 10 10 9 9 8 8 7 7 6 6 6 5 4 4 3 3 4 4 5 3 3 4 4 5 7 8 8 8 7 7 9 11 11 10 11 12 13 12 10 9
15 14 13 13 13 12 12 12 12 12 13 14 15 16 17 18 18 17 17 16 16 16 16 16 17 18 18 18 17 18 17 17 17 16 16 16 17 17 17 16 15 15 14 13 12 12 11 11 11 10 10 9 8 7 7 7 6 6 5 4 4 4 5 5 4 3 4 5 5 7 8 9 9 8 7 7 10 12 12 13 13 13 12 9 9
14 14 13 13 13 14 14 14 14 13 13 13 14 16 17 18 18 18 18 17 17 17 17 17 17 18 19 19 19 19 20 19 19 19 18 18 18 18 18 18 17 16 16 15 14 14 13 13 12 12 11 10 9 9 8 8 7 7 7 7 6 5 5 6 5 4 4 6 6 8 9 10 10 9 9 7 8 12 14 14 14 14 13 10 10
12 14 14 14 14 14 15 15 16 16 16 15 14 15 17 18 19 19 19 19 19 18 18 18 18 19 20 20 20 20 21 21 21 21 21 20 20 20 19 18 18 17 17 16 15 15 14 14 14 13 12 11 11 10 9 9 9 9 9 9 8 7 6 6 7 6 5 6 8 9 10 11 11 11 11 10 8 11 13 14 15 16 15 12 12
15 16 16 15 14 14 14 15 16 17 18 17 16 16 18 18 19 20 21 21 20 20 20 20 20 20 20 21 22 22 22 23 23 23 22 21 20 19 19 18 17 17 16 16 16 16 16 15 15 14 14 13 12 12 11 10 10 11 11 11 10 8 8 7 8 7 7 7 8 10 11 12 13 13 13 12 10 10 12 13 14 16 16 15 14
18 18 17 16 16 15 14 14 15 16 18 18 19 18 19 19 20 21 22 22 22 21 21 21 21 21 21 22 23 23 23 24 24 23 23 21 20 19 18 17 17 16 16 16 16 16 16 16 16 16 15 15 14 13 13 12 12 12 12 13 11 10 9 9 9 9 8 9 9 10 12 13 14 14 15 15 13 11 12 13 14 15 15 15 15
18 17 17 17 16 15 14 14 14 15 17 18 19 19 20 20 21 22 22 23 23 23 23 22 22 22 22 23 23 24 24 25 24 24 24 22 20 18 17 17 16 15 15 16 16 16 16 16 16 16 17 16 16 15 15 14 14 14 14 14 13 12 11 10 10 10 10 10 10 10 12 14 15 16 17 17 16 14 13 14 15 15 15 15 16
18 16 16 16 15 14 13 14 14 14 15 17 18 19 20 21 21 22 22 23 24 24 24 24 24 24 23 24 24 25 25 25 24 24 23 23 20 18 17 17 16 15 15 16 16 16 16 16 16 17 18 18 17 16 16 16 15 15 15 16 16 14 12 12 12 12 11 12 12 11 12 14 16 17 18 19 19 17 15 15 16 17 17 17 17
17 14 15 15 13 13 14 13 13 13 14 15 17 18 19 21 21 22 21 22 23 24 25 26 26 26 25 25 25 25 25 24 24 24 23 22 19 17 16 16 17 16 16 16 16 17 16 16 17 18 18 19 18 17 17 18 17 17 17 17 17 16 14 14 14 14 13 13 13 13 13 14 16 18 19 20 21 20 18 17 17 18 18 18 18
16 16 15 14 14 14 14 13 13 13 14 15 15 16 17 20 20 21 22 22 22 23 25 26 27 28 27 26 26 26 25 24 24 24 23 21 19 17 15 15 17 17 17 17 17 17 17 17 18 18 19 19 18 18 19 19 19 19 19 19 18 17 17 17 16 16 16 15 14 14 14 15 16 17 19 21 22 23 22 22 20 18 18 19 19
18 17 14 14 15 15 14 13 14 14 14 14 14 14 15 17 18 20 22 22 22 23 24 25 27 27 27 27 27 27 26 25 24 23 22 20 19 17 16 16 17 17 17 17 17 18 18 18 19 19 19 19 19 19 20 20 20 20 20 20 20 19 19 19 19 19 18 17 16 16 16 16 17 18 19 21 22 23 25 25 24 22 20 19 20
18 16 15 17 17 16 15 14 15 15 15 14 13 14 14 14 16 18 19 21 23 24 25 25 25 25 25 25 26 26 26 24 23 22 21 20 19 18 17 17 16 17 18 17 17 18 19 20 20 21 21 21 20 20 21 21 21 21 22 21 21 20 20 20 22 21 20 19 18 18 18 17 18 19 20 21 22 23 24 26 27 26 24 21 21
17 17 18 19 18 18 18 17 18 18 16 15 15 15 14 14 14 15 16 18 21 23 24 25 25 25 24 24 24 25 25 24 23 21 21 21 21 19 18 17 17 17 18 18 18 18 19 21 21 22 22 22 22 21 22 22 22 22 22 22 22 22 21 22 23 23 22 21 20 21 20 20 19 20 21 21 22 23 23 25 27 28 27 24 22
18 19 19 19 19 20 20 20 20 20 19 18 17 16 15 15 15 15 15 16 18 20 22 23 25 25 25 25 24 24 25 24 24 23 23 23 22 21 20 19 19 19 20 20 20 19 20 21 21 22 23 23 24 23 24 24 23 23 23 23 23 23 23 24 24 24 24 23 22 22 22 22 22 21 21 22 22 23 23 24 26 27 28 28 26
20 19 18 19 20 21 21 22 22 22 22 21 19 18 17 17 17 17 17 17 18 18 19 20 22 24 25 26 26 26 26 25 25 25 25 25 24 23 21 21 21 22 22 22 22 22 21 21 22 23 23 24 25 25 25 26 25 25 25 25 25 24 25 25 25 25 25 25 25 25 24 25 24 23 23 24 23 23 23 23 25 26 27 28 28
23 22 20 21 22 22 23 24 24 24 24 23 22 21 20 20 19 19 19 19 20 20 19 19 20 22 24 26 27 27 27 27 27 27 27 27 26 25 23 23 23 24 24 25 25 24 24 24 24 24 25 25 26 26 26 27 27 27 27 27 26 26 27 27 26 26 26 27 28 27 27 26 25 25 25 25 25 24 23 23 24 26 26 27 28
24 25 24 24 23 24 25 25 26 26 26 25 25 24 23 23 23 22 22 22 22 22 21 22 22 22 23 24 26 27 28 29 29 29 29 29 28 27 26 25 26 26 26 26 27 26 26 26 26 26 26 27 27 27 27 27 29 29 29 28 28 28 29 29 28 28 29 30 30 29 29 29 28 26 26 26 27 27 26 24 24 25 26 25 26
24 26 26 25 25 26 27 27 28 28 27 27 26 26 26 26 27 26 26 26 26 25 24 25 24 24 24 24 25 26 27 28 29 30 31 31 31 30 29 28 28 28 28 28 28 28 28 28 28 28 28 29 29 28 28 28 30 31 31 30 29 30 30 30 30 30 31 32 32 31 31 31 30 29 27 27 28 28 28 27 25 25 26 25 26
26 26 26 26 27 27 29 29 29 29 29 29 29 29 30 30 30 30 30 30 29 28 28 27 27 27 26 25 25 25 26 27 28 29 31 32 33 33 32 31 31 30 31 31 30 29 29 29 29 29 29 30 30 30 29 29 31 32 32 32 31 32 32 32 33 33 33 33 33 33 33 33 32 31 29 28 29 29 29 29 28 26 25 25 26
30 29 29 29 28 28 29 31 30 31 32 32 32 32 33 32 32 33 32 31 30 30 29 28 28 27 27 28 27 26 26 27 27 28 30 31 32 33 33 33 33 33 33 33 32 31 31 30 30 30 30 31 31 30 29 30 32 34 33 33 34 34 34 34 35 35 34 34 34 34 34 34 34 33 31 30 30 30 30 30 30 29 27 26 26
33 32 32 31 30 29 30 31 30 32 34 34 34 34 34 33 33 33 31 29 28 29 28 26 26 26 28 29 29 29 29 29 28 28 29 30 31 32 33 33 33 34 34 34 34 34 33 33 32 32 32 32 32 30 29 30 33 34 33 33 35 34 34 35 36 36 36 35 35 35 35 35 34 33 31 32 32 31 31 31 31 31 30 28 27
34 34 34 33 32 32 32 31 31 33 34 35 35 35 33 32 33 33 32 30 29 29 28 27 27 27 28 29 28 29 29 30 29 29 30 30 31 31 32 32 33 33 34 35 36 36 36 35 35 35 34 34 34 32 31 31 32 32 30 32 34 33 34 36 36 36 36 34 35 35 35 35 34 33 32 33 33 32 31 31 31 31 31 30 29
35 36 36 35 35 35 35 33 32 32 34 35 36 35 32 31 33 33 33 34 33 32 32 31 30 30 29 29 29 28 28 28 29 29 31 31 32 32 32 32 32 32 33 35 36 36 37 37 36 37 37 37 36 34 33 32 32 32 30 29 28 27 31 35 34 33 32 31 33 33 32 33 32 32 33 33 33 32 31 31 31 31 31 31 30
37 38 38 37 37 37 36 35 34 34 34 34 35 35 33 33 34 35 36 38 38 37 37 36 34 32 32 31 30 30 29 28 28 29 30 31 32 33 33 33 33 32 33 34 35 35 36 37 38 38 38 39 38 36 36 35 34 34 33 30 26 23 27 31 30 31 30 28 29 30 30 31 31 32 33 33 33 33 32 31 31 30 31 31 31
40 40 39 39 39 39 38 37 36 36 34 34 34 36 36 35 35 36 37 38 39 40 39 37 35 34 33 33 33 33 32 31 30 30 30 30 31 33 34 35 34 34 33 34 34 35 36 37 38 39 40 39 39 39 39 38 36 36 37 37 34 31 31 30 28 30 33 33 33 32 33 32 31 32 34 34 34 34 33 32 31 30 30 30 30
41 40 40 40 40 41 41 40 39 37 36 34 34 36 39 39 38 38 38 39 40 40 38 37 37 36 36 36 36 36 35 35 34 33 32 32 32 32 34 35 35 35 35 35 35 36 36 37 38 40 40 40 41 42 41 40 40 39 39 40 40 40 40 38 35 33 34 38 39 36 36 36 33 34 37 36 35 35 35 34 33 32 31 31 31
43 42 41 41 41 41 41 41 40 39 38 35 35 36 38 40 40 39 39 40 40 39 38 38 39 39 39 38 38 38 37 37 36 35 35 34 34 34 34 35 35 35 36 36 36 36 36 37 38 39 40 41 42 44 43 42 43 42 41 41 41 41 41 41 42 40 37 40 44 43 42 41 40 41 42 41 39 39 38 37 36 35 33 33 32
46 45 43 42 40 39 40 40 41 41 40 38 37 37 37 38 39 39 40 39 39 38 38 39 40 40 40 40 39 39 38 38 38 37 36 36 35 35 35 36 36 36 36 36 36 36 36 36 37 38 39 41 42 43 43 43 44 43 42 42 42 41 41 41 42 44 44 43 46 48 46 45 46 44 44 44 43 42 41 40 39 38 37 36 35
40 39 38 38 38 36 36 37 38 39 39 39 38 37 37 38 39 39 40 39 39 38 38 39 40 40 41 40 40 39 38 38 38 38 37 37 36 36 36 36 37 37 36 36 35 36 36 36 36 37 38 39 40 42 42 42 42 43 42 43 43 42 42 42 42 43 45 44 47 50 48 47 49 46 44 45 45 44 43 42 42 41 40 39 38
32 31 30 32 33 32 32 33 34 35 36 37 37 37 37 37 38 39 39 39 38 38 38 39 39 39 40 39 38 37 37 37 37 38 38 37 36 36 36 37 37 37 37 36 36 35 35 34 34 36 37 38 39 40 41 41 41 42 43 43 44 44 43 44 43 43 44 44 46 48 48 48 49 48 46 46 46 45 44 44 45 45 43 42 40
Wind_Direction
160 162 162 155 154 150 148 149 148 147 145 146 141 135 128 107 70 59 48 60 85 97 99 98 103 122 142 154 171 181 179 170 161 156 135 110 112 124 124 114 109 105 104 104 101 98 100 99 98 98 97 101 99 99 101 98 99 100 102 100 97 92 94 101 102 100 97 96 93 88 90 89 85 84 87 88 87 85 84 84 85 85 86 89 91
158 160 162 158 157 153 152 153 151 151 146 146 140 135 128 105 65 51 41 56 84 100 106 111 115 115 115 124 140 151 150 146 137 130 123 114 112 120 123 114 110 105 106 109 108 106 105 101 99 100 97 99 102 103 101 100 100 98 99 97 94 91 92 93 96 101 101 101 99 93 91 94 96 95 92 91 89 88 88 87 86 86 87 91 94
160 158 161 160 160 156 155 156 153 155 152 150 146 140 130 106 62 42 40 58 84 101 111 117 127 129 119 119 119 120 118 119 121 120 116 117 119 120 120 114 110 108 111 114 112 109 106 104 101 100 101 104 105 105 104 106 105 102 102 102 100 97 94 89 89 96 101 102 101 97 94 94 97 96 92 90 90 90 91 90 89 88 89 91 93
167 158 160 162 163 160 157 159 156 157 157 156 158 148 134 123 66 35 39 53 79 105 118 121 127 131 127 125 118 114 113 113 117 120 118 120 123 123 121 114 112 113 116 115 113 111 109 108 104 101 101 105 106 106 108 109 107 106 104 100 99 98 97 94 92 95 100 101 101 99 95 92 91 92 91 90 91 92 92 93 92 91 93 94 91
171 160 161 163 166 165 160 161 160 161 160 161 170 159 145 148 99 42 37 47 78 115 127 130 128 126 129 129 124 118 117 120 120 121 121 120 121 123 121 117 116 117 120 118 116 115 114 111 107 104 105 106 107 109 111 111 109 106 102 98 96 94 94 92 91 96 100 100 99 97 92 88 85 85 88 94 97 95 92 94 95 96 99 97 91
169 165 163 166 169 170 165 164 164 165 166 173 180 176 168 165 138 62 43 46 74 119 127 131 131 129 134 135 130 122 122 125 123 123 122 120 121 125 125 124 124 124 124 121 119 118 117 113 109 108 110 111 109 111 113 113 111 107 103 98 95 91 88 85 88 95 98 97 97 98 97 91 87 86 87 95 100 96 95 96 97 101 102 96 87
167 169 167 170 172 175 171 165 169 169 172 182 189 196 190 172 149 60 46 51 61 107 122 126 130 129 133 135 131 125 126 126 125 125 124 123 122 128 130 130 128 123 124 124 124 122 120 115 111 110 113 114 112 114 115 116 112 108 106 106 104 102 97 87 88 92 92 93 97 100 101 100 99 96 89 91 96 96 97 100 103 106 104 93 79
168 173 171 173 173 177 178 169 171 173 179 188 197 209 199 174 91 26 32 54 57 88 121 128 129 130 132 132 130 126 128 126 126 127 130 128 121 126 132 134 131 127 127 128 128 125 121 117 115 115 117 117 116 117 118 118 115 115 115 115 114 115 117 111 99 91 92 94 95 96 97 102 106 103 97 96 98 103 107 111 116 114 105 91 76
171 176 172 176 176 178 182 175 175 177 187 197 204 210 201 232 293 6 18 49 57 82 125 134 132 135 135 134 130 124 125 127 128 129 135 135 125 129 134 135 134 134 133 131 130 125 121 120 119 119 119 120 120 120 120 120 119 119 118 117 116 118 124 128 126 104 98 96 92 92 94 100 103 104 103 103 107 115 121 125 131 123 115 97 71
176 177 173 177 178 180 184 182 180 182 193 204 208 213 225 253 254 257 359 69 64 95 132 143 139 140 141 139 133 125 125 128 130 132 135 137 135 135 138 137 135 137 137 136 133 130 128 126 125 124 123 123 122 121 120 121 120 119 117 114 114 118 128 138 144 135 111 99 94 94 97 103 105 106 102 104 111 118 126 132 139 132 124 98 60
179 179 176 177 179 182 187 189 188 191 198 206 214 225 242 250 241 226 200 168 120 123 145 153 148 143 145 145 140 138 137 136 137 138 135 136 142 141 140 139 139 140 140 141 140 136 134 131 130 127 127 127 123 122 120 120 115 112 114 112 115 124 137 149 153 151 143 121 107 102 109 116 115 110 105 103 103 111 124 126 130 127 111 72 49
180 181 178 179 183 184 187 193 197 202 208 214 224 234 239 236 229 215 195 181 159 151 154 159 161 155 152 150 147 147 148 147 144 139 135 138 145 145 144 146 146 145 146 148 147 142 139 137 135 132 131 130 125 122 116 110 104 104 113 114 123 138 151 163 169 166 160 153 142 128 127 129 122 113 111 105 95 106 119 121 130 122 78 42 40
179 179 179 182 185 188 190 193 200 208 215 221 227 227 223 218 215 209 196 186 176 169 165 168 173 174 165 158 153 154 155 152 151 146 144 151 153 152 154 154 150 150 153 152 150 146 145 144 140 139 137 133 129 125 116 101 92 94 108 123 149 165 185 184 180 176 175 170 156 145 139 134 130 123 122 119 109 119 122 134 150 114 11 14 21
181 179 179 184 188 194 196 197 203 210 215 220 220 211 207 205 200 201 198 191 189 182 180 181 184 188 181 170 161 162 166 163 164 162 161 165 163 161 164 162 158 161 159 153 156 153 149 151 147 147 144 138 136 129 116 99 92 88 77 338 201 190 216 220 199 180 179 177 161 153 147 141 145 141 138 136 132 146 169 191 199 284 317 323 342
184 185 186 190 193 199 202 204 206 211 215 216 214 206 202 198 193 195 198 192 194 195 195 195 192 193 193 186 176 172 176 178 179 177 177 177 172 172 174 173 170 172 168 163 165 159 154 157 154 153 152 150 148 130 109 90 79 52 4 344 303 210 210 237 241 200 182 177 169 163 156 153 161 161 155 152 151 161 187 220 230 278 297 304 324
184 189 194 199 202 205 208 210 211 214 216 215 215 210 204 200 193 193 197 192 193 199 203 203 196 193 198 199 193 186 184 187 190 187 187 186 184 186 186 182 180 181 176 175 173 163 161 162 161 161 164 173 171 147 100 72 43 17 347 328 305 262 222 246 270 234 189 184 177 173 168 168 172 172 171 167 170 175 188 223 241 258 269 293 318
186 192 198 205 208 209 211 214 216 218 218 215 216 212 208 205 199 196 196 194 194 195 199 204 201 196 202 207 204 198 194 195 198 198 198 197 198 198 197 191 189 193 185 181 182 173 171 172 171 175 180 192 199 210 200 357 343 350 342 319 299 292 280 259 279 265 199 199 189 183 180 179 179 182 187 180 181 190 195 221 242 244 248 276 299
199 202 203 208 212 213 214 216 218 221 223 218 216 214 212 210 207 203 197 196 196 195 198 203 206 204 203 209 210 206 203 202 203 208 209 210 211 209 208 204 203 206 197 191 194 185 187 194 189 192 200 206 214 231 244 264 295 326 331 316 303 289 291 280 277 267 212 210 197 192 188 184 186 189 196 193 191 200 208 221 240 245 246 272 290
214 214 212 212 215 218 217 218 219 221 224 221 219 217 215 214 213 211 205 201 201 200 200 202 204 206 207 209 210 209 207 207 209 212 214 217 220 218 216 216 216 217 210 205 204 200 204 213 211 212 217 221 229 239 254 266 282 308 319 311 308 290 288 288 275 258 223 214 198 194 190 187 193 195 199 206 204 206 217 224 237 248 254 270 284
221 221 218 217 218 222 222 222 222 223 225 224 221 218 218 218 216 216 214 209 207 205 201 201 204 205 209 209 207 209 210 211 214 217 218 219 221 222 221 223 224 221 218 214 212 213 219 225 225 227 230 233 238 244 255 267 278 294 306 303 298 287 285 288 283 273 240 219 201 197 195 191 193 198 203 212 217 215 218 226 237 247 254 264 273
221 219 216 221 222 224 226 228 227 227 228 226 222 219 219 220 219 218 219 218 214 213 207 203 205 206 209 210 208 209 212 215 218 222 223 222 222 224 224 225 227 226 225 223 221 221 226 231 233 235 237 240 242 248 257 268 277 284 287 289 286 282 285 290 292 287 267 239 213 205 203 200 197 203 208 211 221 221 221 228 238 247 249 254 266
220 217 213 217 221 224 226 230 233 234 233 230 226 221 221 222 222 221 222 224 221 221 218 212 210 211 213 213 212 213 215 217 221 225 227 227 225 225 226 226 226 228 230 228 227 228 229 233 237 240 241 245 246 251 260 267 276 278 277 278 275 277 289 297 298 284 271 254 225 215 211 208 205 212 214 214 222 221 223 230 237 249 252 249 262
218 218 216 216 220 223 225 228 230 234 237 236 232 226 225 225 225 225 225 227 226 226 226 224 219 219 220 220 218 218 219 221 224 227 229 230 228 227 227 227 226 227 231 232 231 233 234 236 240 243 244 247 250 253 261 268 274 276 276 276 272 272 285 299 300 284 268 259 238 226 222 218 216 219 215 217 228 222 223 233 237 249 253 250 258
217 221 225 224 224 225 226 229 227 227 231 235 236 233 230 229 229 230 229 229 230 230 230 231 228 226 226 226 225 224 224 225 227 229 229 230 229 229 228 228 227 227 231 233 234 236 238 240 243 245 248 250 252 256 261 267 272 275 277 276 274 273 279 291 298 298 274 261 248 236 231 227 224 225 218 218 237 232 227 232 237 248 251 248 253
225 229 230 229 228 227 228 229 228 226 224 226 231 234 235 234 233 233 233 231 231 232 234 235 234 232 230 230 230 230 230 229 230 231 231 232 231 230 230 230 229 229 232 236 238 240 242 244 245 248 250 253 254 257 259 263 267 270 274 276 277 277 280 287 292 298 283 263 254 245 240 235 231 230 224 218 232 241 238 235 236 245 251 250 252
229 230 230 232 232 231 229 229 230 229 225 224 223 227 232 234 235 235 235 233 232 233 235 237 237 237 236 235 235 235 235 235 235 235 234 234 234 234 234 234 234 233 235 239 241 242 245 246 248 250 251 253 254 257 259 260 262 266 271 275 279 281 283 287 288 292 285 271 260 251 245 242 237 235 231 223 223 238 246 246 244 248 254 259 259
227 229 230 234 236 233 231 230 231 231 229 227 225 224 225 229 234 235 235 234 234 234 236 238 239 241 241 241 241 241 241 241 242 242 241 240 237 237 238 239 239 239 238 241 244 245 247 248 250 252 252 255 256 258 260 261 262 264 268 271 276 280 283 286 286 288 286 277 268 257 250 246 243 240 237 230 226 232 240 247 251 255 259 264 263
231 231 230 233 234 233 232 232 233 233 232 230 230 227 225 226 229 232 233 233 233 235 236 238 240 242 244 246 247 247 247 247 247 247 249 250 245 241 241 243 244 245 243 245 248 248 249 250 252 253 254 256 257 258 260 262 263 264 267 270 273 276 279 281 283 287 287 282 275 264 254 248 246 244 241 236 231 229 235 246 253 259 264 266 265
231 228 227 228 229 230 231 233 232 232 232 232 232 231 231 230 228 229 230 231 232 233 235 237 238 241 244 246 249 251 253 255 255 255 256 258 257 252 246 245 248 248 246 247 250 252 252 251 252 252 253 255 257 257 258 260 261 264 267 269 272 275 276 277 279 283 283 282 279 271 262 254 249 247 245 241 237 231 230 241 250 255 260 265 267
228 226 223 222 221 224 228 231 233 233 232 233 234 232 233 234 232 231 232 232 232 233 235 236 237 239 241 244 248 251 255 258 261 262 263 265 267 264 253 247 249 251 250 251 252 254 252 251 252 252 252 253 256 256 257 259 259 262 265 267 271 274 275 274 275 278 278 278 279 277 271 264 256 250 248 245 243 238 231 232 239 248 254 259 264
227 227 222 220 219 223 226 227 230 232 233 233 235 234 234 235 235 235 236 236 235 235 236 237 238 239 240 242 244 248 251 254 258 261 265 268 270 268 262 254 254 256 257 256 256 257 255 253 253 253 251 253 255 254 255 258 259 260 263 266 269 270 271 272 272 273 274 276 278 278 275 271 264 258 253 249 246 243 239 235 233 238 246 253 257
230 229 225 224 225 227 228 228 229 230 232 233 234 235 236 236 236 237 238 239 241 240 238 237 238 239 241 241 242 245 248 250 252 256 261 266 269 270 269 265 264 264 263 260 259 260 259 257 255 254 253 254 255 254 254 257 260 260 260 264 266 266 268 270 271 272 274 278 279 277 274 272 269 265 260 255 250 246 244 242 238 235 235 244 253
238 237 233 231 231 232 233 234 234 234 234 234 235 237 238 239 239 239 240 241 243 243 242 241 241 241 241 242 243 245 246 248 249 252 258 263 265 266 268 269 269 268 267 264 260 260 261 261 260 259 259 258 259 258 256 259 263 262 261 263 264 265 267 268 270 273 275 278 278 277 275 273 271 268 264 259 255 252 248 246 244 240 235 235 247
242 239 237 236 235 234 235 237 237 239 239 237 237 237 237 239 242 242 243 243 244 246 246 246 247 247 246 246 246 247 248 249 250 251 254 258 261 262 264 266 265 265 266 266 263 261 260 262 262 261 263 264 265 263 261 263 265 265 265 264 265 266 266 266 269 272 274 276 277 277 277 277 274 271 268 263 259 256 253 250 248 245 240 234 238
238 237 239 241 240 238 238 238 238 240 241 240 240 239 239 240 242 244 244 246 248 250 250 250 251 251 252 252 251 252 252 253 254 254 253 254 256 258 260 261 261 260 261 262 263 261 259 260 261 261 263 264 267 267 265 267 267 268 269 267 267 267 266 268 270 272 275 276 276 277 278 278 277 275 273 269 264 260 256 253 251 250 246 238 235
237 239 242 243 243 241 240 241 241 242 242 242 242 241 241 241 242 244 244 246 248 250 252 254 255 255 255 254 254 255 256 256 256 257 257 255 255 255 256 258 259 258 258 259 259 260 260 260 261 260 260 261 264 266 267 269 269 270 270 268 268 268 267 269 270 272 275 275 275 276 276 276 277 277 276 274 271 266 261 255 253 253 251 245 238
242 244 246 245 244 243 242 243 243 244 245 245 243 242 241 242 243 244 245 246 247 248 250 252 254 255 255 255 255 256 257 258 257 257 258 259 258 257 256 256 256 257 257 258 258 259 259 260 260 260 261 261 261 264 266 268 269 270 270 270 270 269 268 269 270 272 272 272 273 273 274 275 276 276 276 275 273 271 266 260 255 254 254 251 243
246 248 250 251 249 247 246 247 247 246 247 246 246 245 244 244 244 244 246 247 248 249 249 249 249 250 253 254 255 256 257 258 258 259 259 261 261 261 260 258 257 257 257 258 259 259 259 259 260 261 262 262 262 263 265 267 269 269 269 269 270 270 270 271 270 270 270 270 271 272 273 275 275 274 274 274 274 272 270 265 259 255 254 253 250
246 248 251 252 251 251 249 249 249 247 246 247 247 247 246 245 244 244 245 245 247 247 247 247 247 248 249 251 252 253 255 256 257 259 260 261 262 262 263 262 260 260 259 258 259 259 260 261 262 263 263 264 263 264 265 265 265 266 267 268 268 268 268 269 268 268 267 269 270 272 272 273 273 273 273 273 273 272 271 269 264 258 255 253 252
246 247 248 250 253 253 250 249 248 246 246 245 244 244 243 243 242 242 243 245 246 247 249 249 249 250 250 250 250 251 253 254 255 256 259 261 262 263 263 263 262 261 260 261 262 262 263 264 266 266 266 266 266 265 265 265 264 265 266 267 267 267 266 265 265 266 266 267 269 271 272 272 272 272 272 273 273 272 271 270 268 264 259 254 251
247 245 245 249 253 253 252 251 249 247 245 243 243 242 242 243 243 245 247 249 251 252 254 255 255 255 255 254 253 253 253 254 254 255 257 259 260 262 262 263 263 262 262 263 265 264 264 265 266 267 267 267 268 267 266 265 264 265 267 269 268 266 266 266 266 266 266 267 269 270 272 272 272 272 273 273 273 273 272 270 269 267 263 258 252
246 245 247 250 253 253 254 255 254 250 247 246 245 245 246 248 250 253 256 258 259 258 259 260 261 261 260 259 258 257 256 256 256 256 257 259 260 260 261 262 262 262 263 263 263 264 264 264 264 265 266 267 268 269 266 262 262 266 270 271 270 269 268 267 267 267 268 269 271 271 273 273 274 274 274 273 272 271 271 270 269 268 266 262 256
247 247 250 253 254 255 256 257 256 254 252 250 248 248 250 252 255 257 258 258 259 259 259 259 259 260 259 259 259 258 257 257 257 257 258 260 261 261 262 262 261 261 261 261 262 262 263 263 263 264 265 265 266 267 265 262 262 265 266 266 269 273 273 269 267 269 271 272 272 272 273 274 275 275 273 271 270 269 269 269 268 267 265 264 260
248 249 251 252 254 256 258 257 257 257 256 254 252 251 251 253 255 256 256 256 256 256 256 256 256 257 256 257 257 256 255 256 256 257 258 259 260 261 262 262 262 261 261 261 261 262 263 264 264 265 264 264 266 267 266 264 263 261 257 259 264 267 271 273 274 276 276 274 273 273 274 275 275 274 272 271 271 269 267 267 267 266 265 264 262
248 251 253 254 257 259 260 259 259 260 259 257 255 252 249 249 251 252 252 252 252 252 251 253 255 256 257 258 259 258 258 259 258 258 259 260 261 261 261 261 261 261 261 262 263 263 264 264 264 265 265 265 267 269 268 266 264 261 257 257 257 255 265 277 283 284 282 278 277 277 277 277 277 275 274 273 272 269 267 265 264 265 264 264 262
251 254 256 258 261 263 262 261 260 260 260 260 258 253 249 247 249 250 251 252 253 253 254 257 259 261 264 265 264 262 262 261 261 261 261 262 263 264 263 263 263 262 262 262 263 264 264 264 264 264 265 266 266 266 267 266 265 263 260 259 258 258 265 274 279 283 284 282 281 281 280 280 279 278 276 274 273 270 268 265 263 262 262 262 261
253 255 257 259 261 262 261 260 260 260 260 260 259 255 251 250 251 253 256 257 258 259 261 264 265 267 268 268 267 266 265 263 263 263 263 263 264 266 265 265 265 264 263 263 263 264 265 266 265 264 266 266 264 264 266 266 264 264 264 263 263 263 263 264 267 274 280 282 281 280 280 279 278 278 277 275 274 273 270 267 265 263 261 261 260
256 257 258 259 261 261 260 258 258 258 258 258 258 257 255 254 255 257 259 259 260 263 265 266 267 268 268 269 269 268 267 266 265 264 263 264 265 266 266 266 266 265 264 264 265 266 266 267 267 266 266 265 264 264 266 266 264 266 267 265 266 267 265 263 264 265 267 273 277 278 278 277 276 277 277 276 275 274 273 272 269 266 264 263 261
263 262 262 261 261 259 257 257 256 257 256 256 257 258 258 258 258 260 260 260 261 263 265 265 266 267 268 269 269 268 268 267 265 264 264 264 264 266 266 266 265 265 265 265 266 268 268 268 268 268 268 267 266 266 267 267 266 267 268 267 268 269 268 267 266 263 260 263 268 273 278 279 276 278 278 277 277 277 277 276 274 270 267 265 262
266 266 265 262 258 256 254 253 252 253 254 255 256 257 257 257 257 258 259 260 261 263 264 265 266 267 267 268 268 269 269 268 268 267 266 265 265 266 266 266 267 267 267 266 267 268 269 270 270 270 270 269 268 267 267 268 268 268 268 268 267 267 267 267 267 266 261 260 262 266 274 276 276 279 281 280 280 279 279 279 277 274 271 268 266
264 264 260 257 255 254 251 250 248 249 251 252 253 253 254 255 256 257 258 260 263 264 264 265 265 266 267 268 270 270 271 270 270 269 268 267 267 267 267 268 269 269 269 268 267 268 270 272 273 273 272 271 270 268 267 268 268 267 267 266 266 267 267 267 270 270 266 264 263 265 271 274 274 278 281 282 281 280 280 279 278 277 276 274 271